MET'MAP v2.0
soon released !

Expected late october,
this new version will be
more efficient, smarter,
and hosted on a brand new
server x3 powerfull...
...and still free !


Not compatible ?
Try the mobile version !

LOG IN : | Subscribe | Disclaimer | Who is Orbifly ? |
ICAO code :

TAF - LFQG Nevers - 01 Apr 2020 18:27 UTC
Data Sources :     NOAA   


- Airport Elevation : 602 ft
- IATA code : NVS
- No reported NOTAMs.


LFQG - Nevers

Latest METAR recorded : 2020/04/01 16:00 LFQG 011600Z AUTO 02003KT 310V110 CAVOK 15/M04 Q1015
NO TAF


MET'MAP, your aeronautical weather chart ! - Copyright ORBIFLY December 2007

Programming & Development : Alexandra Zaïnal
Co-Developer : Marc-Olivier Méhu
Technical & hardware support : Manuel Goepfert
Concept & Financing : Baudouin d'Aumeries